User: anonymous   Login
Location: Oshawa
(43.9000°N, 78.8670°W)
Time: 22:55:02
(UTC-04:00)
Language:

Cosmos 839 Rocket - Orbit

View from above orbital plane
View from above orbital plane
View from above satellite
View from above satellite

Ground track
Ground track

The orbit data is extracted from the following two-line orbital elements,

1 09013U 76067B   16205.79741737 -.00000012  00000-0  14427-3 0  9993
2 09013  65.8660 283.9219 0717841 202.3690 303.7995 12.35325443806080
Epoch (UTC): 23 July 2016 19:08:16
Eccentricity: 0.0717841
inclination: 65.8660°
perigee height: 959 km
apogee height: 2094 km
right ascension of ascending node: 283.9219°
argument of perigee: 202.3690°
revolutions per day: 12.35325443
mean anomaly at epoch: 303.7995°
orbit number at epoch: 80608

The dashed part of the orbit path shows where the satellite is in the earth's shadow,  

DLR